WET,Max TemperatureF,Mean TemperatureF,Min TemperatureF,Max Dew PointF,MeanDew PointF,Min DewpointF,Max Humidity, Mean Humidity, Min Humidity, Max Sea Level PressureIn, Mean Sea Level PressureIn, Min Sea Level PressureIn, Max VisibilityMiles, Mean VisibilityMiles, Min VisibilityMiles, Max Wind SpeedMPH, Mean Wind SpeedMPH, Max Gust SpeedMPH,PrecipitationIn, CloudCover, Events, WindDirDegrees
2013-11-1,87,69,51,48,41,36,71,40,9,30.15,30.10,29.97,6,6,6,9,5,,0.00,1,,65
2013-11-2,89,70,51,43,40,34,58,31,9,30.15,30.08,29.96,6,6,5,9,3,,0.00,,,227
2013-11-3,87,72,58,59,45,37,73,41,12,30.33,30.17,30.04,6,6,3,21,6,31,0.00,6,,271
2013-11-4,84,72,60,57,50,43,73,46,19,30.30,30.22,30.11,6,6,4,14,5,,0.00,4,,65
2013-11-5,83,70,58,52,48,46,77,45,21,30.27,30.19,30.07,6,6,6,9,4,,0.00,,,54
2013-11-6,86,70,55,54,49,45,72,47,20,30.18,30.14,30.01,6,6,5,6,3,,0.00,,,300
2013-11-7,78,66,55,59,56,53,100,75,43,30.24,30.18,30.08,6,4,1,12,6,,0.00,3,,275
2013-11-8,77,65,53,57,54,48,94,66,38,30.24,30.17,30.07,6,5,4,9,3,,0.00,3,,16
2013-11-9,78,66,55,55,53,50,88,64,41,30.27,30.21,30.14,6,6,6,14,5,20,0.00,1,,47
2013-11-10,79,66,53,55,51,45,94,61,27,30.27,30.22,30.12,6,6,5,10,5,,0.00,,,68
2013-11-11,84,68,53,48,42,32,72,42,11,30.21,30.15,30.02,6,6,5,9,4,,0.00,,,60
2013-11-12,83,68,52,55,43,34,73,42,15,30.12,30.07,29.95,6,6,5,7,3,,0.00,,,13
2013-11-13,77,65,53,57,52,44,88,62,30,30.09,30.04,29.94,6,6,4,8,3,,0.00,,,252
2013-11-14,78,65,52,59,53,45,100,68,25,30.09,30.04,29.92,6,5,0,8,4,,0.00,2,Fog,3
2013-11-15,79,66,52,50,46,41,72,50,20,30.09,30.02,29.92,6,6,5,10,4,,0.00,1,,25
2013-11-16,72,60,48,52,47,37,100,69,26,30.04,29.99,29.91,6,5,1,12,6,,0.00,3,,270
2013-11-17,61,54,48,48,42,36,94,60,28,30.10,30.05,30.01,6,6,5,13,6,17,0.04,5,Rain,286
2013-11-18,66,54,43,45,39,35,81,56,25,30.13,30.09,30.04,6,6,6,9,3,,0.00,3,,207
2013-11-19,67,56,44,52,45,41,88,64,29,30.13,30.07,29.99,6,6,4,8,3,,0.00,2,,272
2013-11-20,67,56,44,52,47,43,100,71,35,30.13,30.09,30.03,6,6,4,8,4,,0.00,3,,63
2013-11-21,69,58,46,46,41,34,93,60,19,30.14,30.08,30.00,6,6,3,10,5,,0.00,4,,158
2013-11-22,69,57,45,61,48,36,100,70,35,30.06,30.01,29.95,6,6,3,12,4,,0.20,6,Rain,235
2013-11-23,70,60,49,64,61,59,100,95,69,30.04,30.00,29.91,6,5,2,14,6,,0.12,6,Rain,253
2013-11-24,70,63,56,61,59,55,100,88,60,29.98,29.92,29.81,6,6,3,13,6,,0.00,5,Rain,261
2013-11-25,64,57,50,57,49,43,100,76,44,30.01,29.95,29.90,6,6,3,10,8,,0.00,5,,47
2013-11-26,68,55,42,48,45,43,100,70,30,30.04,30.01,29.94,6,6,4,10,4,,0.00,2,,147
2013-11-27,69,58,48,48,44,37,93,60,23,30.07,30.02,29.96,6,6,5,7,3,,0.00,3,,333
2013-11-28,71,58,46,46,42,34,93,54,18,30.12,30.07,29.99,6,6,3,6,3,,0.00,3,,92
2013-11-29,73,64,55,49,45,41,72,52,23,30.12,30.08,30.02,6,6,4,15,4,,0.00,3,,44
2013-11-30,74,64,53,47,45,43,72,53,22,30.12,30.04,29.93,6,6,4,9,3,,0.00,3,,46